| time (UTC) | temp F | wind direction | speed MPH | gust MPH | rain 1hr in | rain 24hr in | rain mn in | humidity % | barometer mb |
| 20260510174018 | 58 | 338 | 6.0 | 14.0 | 0.00 | 0.17 | 0.00 | 45 | 1013.0 |
| 20260510173018 | 58 | 338 | 7.0 | 12.0 | 0.00 | 0.17 | 0.00 | 44 | 1013.1 |
| 20260510172018 | 58 | 338 | 7.0 | 13.0 | 0.00 | 0.17 | 0.00 | 43 | 1013.1 |
| 20260510171018 | 57 | 338 | 9.0 | 13.0 | 0.00 | 0.17 | 0.00 | 43 | 1013.1 |
| 20260510170018 | 57 | 338 | 8.0 | 12.0 | 0.00 | 0.17 | 0.00 | 43 | 1013.1 |
| 20260510165038 | 57 | 23 | 9.0 | 16.0 | 0.00 | 0.17 | 0.00 | 45 | 1013.1 |
| 20260510164038 | 57 | 338 | 10.0 | 15.0 | 0.00 | 0.17 | 0.00 | 46 | 1013.1 |
| 20260510163039 | 57 | 338 | 6.0 | 12.0 | 0.00 | 0.17 | 0.00 | 47 | 1013.0 |
| 20260510162023 | 56 | 338 | 7.0 | 12.0 | 0.00 | 0.17 | 0.00 | 47 | 1013.0 |
| 20260510161017 | 56 | 338 | 8.0 | 17.0 | 0.00 | 0.17 | 0.00 | 48 | 1012.9 |
| 20260510160020 | 56 | 338 | 7.0 | 13.0 | 0.00 | 0.17 | 0.00 | 49 | 1013.0 |
| 20260510155019 | 56 | 338 | 8.0 | 13.0 | 0.00 | 0.17 | 0.00 | 49 | 1013.0 |
| 20260510154039 | 56 | 338 | 6.0 | 13.0 | 0.00 | 0.17 | 0.00 | 49 | 1013.0 |
| 20260510153020 | 56 | 315 | 4.0 | 7.0 | 0.00 | 0.17 | 0.00 | 50 | 1013.0 |
| 20260510152019 | 57 | 315 | 4.0 | 10.0 | 0.00 | 0.17 | 0.00 | 48 | 1012.8 |
| 20260510151100 | 56 | 315 | 6.0 | 13.0 | 0.00 | 0.17 | 0.00 | 47 | 1012.7 |
| 20260510150019 | 56 | 315 | 6.0 | 13.0 | 0.00 | 0.17 | 0.00 | 47 | 1012.5 |
| 20260510145019 | 56 | 293 | 5.0 | 11.0 | 0.00 | 0.17 | 0.00 | 48 | 1012.4 |
| 20260510144019 | 56 | 315 | 4.0 | 9.0 | 0.00 | 0.17 | 0.00 | 50 | 1012.3 |
| 20260510143020 | 55 | 293 | 4.0 | 8.0 | 0.00 | 0.17 | 0.00 | 52 | 1012.1 |
| 20260510142039 | 55 | 23 | 4.0 | 6.0 | 0.00 | 0.17 | 0.00 | 52 | 1012.0 |
| 20260510141019 | 55 | 315 | 3.0 | 10.0 | 0.00 | 0.17 | 0.00 | 54 | 1011.9 |
| 20260510140019 | 54 | 315 | 2.0 | 6.0 | 0.00 | 0.17 | 0.00 | 55 | 1011.8 |
| 20260510135019 | 53 | 293 | 3.0 | 7.0 | 0.00 | 0.17 | 0.00 | 57 | 1011.6 |
| 20260510134019 | 53 | 225 | 1.0 | 3.0 | 0.00 | 0.17 | 0.00 | 58 | 1011.5 |
| 20260510133019 | 52 | 293 | 2.0 | 5.0 | 0.00 | 0.17 | 0.00 | 59 | 1011.6 |
| 20260510132019 | 52 | 293 | 4.0 | 7.0 | 0.00 | 0.17 | 0.00 | 58 | 1011.7 |
| 20260510131019 | 52 | 293 | 2.0 | 5.0 | 0.00 | 0.17 | 0.00 | 60 | 1011.7 |
| 20260510130039 | 52 | 315 | 2.0 | 6.0 | 0.00 | 0.17 | 0.00 | 61 | 1011.8 |
| 20260510125019 | 52 | 293 | 4.0 | 9.0 | 0.00 | 0.17 | 0.00 | 60 | 1011.6 |
| 20260510124019 | 52 | 293 | 4.0 | 9.0 | 0.00 | 0.17 | 0.00 | 60 | 1011.6 |
| 20260510123019 | 51 | 293 | 3.0 | 7.0 | 0.00 | 0.17 | 0.00 | 63 | 1011.6 |
| 20260510122019 | 51 | 293 | 5.0 | 11.0 | 0.00 | 0.17 | 0.00 | 63 | 1011.4 |
| 20260510121019 | 51 | 293 | 3.0 | 5.0 | 0.00 | 0.17 | 0.00 | 65 | 1011.4 |
| 20260510120039 | 52 | 293 | 3.0 | 5.0 | 0.00 | 0.17 | 0.00 | 65 | 1010.9 |
| 20260510115019 | 52 | 293 | 2.0 | 4.0 | 0.00 | 0.17 | 0.00 | 67 | 1010.8 |
| 20260510114019 | 51 | 293 | 2.0 | 4.0 | 0.00 | 0.17 | 0.00 | 68 | 1010.6 |
| 20260510113019 | 51 | 293 | 2.0 | 4.0 | 0.00 | 0.17 | 0.00 | 65 | 1010.1 |
| 20260510112018 | 51 | 315 | 2.0 | 5.0 | 0.00 | 0.17 | 0.00 | 68 | 1009.8 |
| 20260510111059 | 52 | 338 | 3.0 | 6.0 | 0.00 | 0.17 | 0.00 | 69 | 1009.8 |
| 20260510110018 | 52 | 315 | 4.0 | 7.0 | 0.00 | 0.17 | 0.00 | 68 | 1009.6 |
| 20260510105018 | 52 | 338 | 4.0 | 10.0 | 0.00 | 0.17 | 0.00 | 70 | 1009.4 |
| 20260510104018 | 53 | 293 | 3.0 | 7.0 | 0.00 | 0.17 | 0.00 | 73 | 1009.0 |
| 20260510103019 | 53 | 293 | 5.0 | 12.0 | 0.00 | 0.17 | 0.00 | 73 | 1008.6 |
| 20260510102019 | 53 | 293 | 4.0 | 7.0 | 0.00 | 0.17 | 0.00 | 76 | 1008.4 |
| 20260510101018 | 53 | 293 | 5.0 | 10.0 | 0.00 | 0.17 | 0.00 | 79 | 1008.4 |
| 20260510100518 | 54 | 293 | 4.0 | 10.0 | 0.00 | 0.17 | 0.00 | 80 | 1008.4 |
| 20260510095518 | 54 | 293 | 4.0 | 7.0 | 0.00 | 0.17 | 0.00 | 82 | 1008.0 |
| 20260510094518 | 54 | 293 | 2.0 | 5.0 | 0.00 | 0.17 | 0.00 | 83 | 1007.6 |
| 20260510093518 | 53 | 315 | 1.0 | 3.0 | 0.00 | 0.17 | 0.00 | 85 | 1007.4 |
| 20260510092519 | 52 | 248 | 1.0 | 3.0 | 0.00 | 0.17 | 0.00 | 87 | 1007.4 |
| 20260510091519 | 51 | 0.0 | 2.0 | 0.00 | 0.17 | 0.00 | 88 | 1007.3 | |
| 20260510090518 | 51 | 0.0 | 1.0 | 0.00 | 0.17 | 0.00 | 87 | 1007.0 | |
| 20260510085518 | 51 | 0.0 | 1.0 | 0.00 | 0.17 | 0.00 | 88 | 1007.1 | |
| 20260510084558 | 50 | 158 | 1.0 | 3.0 | 0.00 | 0.17 | 0.00 | 87 | 1007.0 |
| 20260510083518 | 50 | 158 | 1.0 | 2.0 | 0.00 | 0.17 | 0.00 | 87 | 1006.9 |
| 20260510082518 | 50 | 180 | 2.0 | 4.0 | 0.00 | 0.17 | 0.00 | 87 | 1007.0 |
| 20260510081518 | 50 | 158 | 3.0 | 6.0 | 0.00 | 0.17 | 0.00 | 87 | 1006.7 |
| 20260510080518 | 50 | 180 | 3.0 | 7.0 | 0.00 | 0.17 | 0.00 | 87 | 1006.7 |
| 20260510075518 | 51 | 225 | 3.0 | 7.0 | 0.00 | 0.17 | 0.00 | 87 | 1006.3 |
| 20260510074518 | 50 | 180 | 4.0 | 7.0 | 0.00 | 0.17 | 0.00 | 87 | 1006.1 |
| 20260510073518 | 51 | 180 | 4.0 | 7.0 | 0.00 | 0.17 | 0.00 | 87 | 1006.3 |
| 20260510072518 | 51 | 180 | 4.0 | 7.0 | 0.00 | 0.17 | 0.00 | 87 | 1006.4 |
| 20260510071517 | 51 | 180 | 4.0 | 6.0 | 0.00 | 0.17 | 0.00 | 86 | 1006.2 |
| 20260510070518 | 51 | 203 | 3.0 | 4.0 | 0.00 | 0.17 | 0.00 | 87 | 1006.2 |
| 20260510065517 | 51 | 180 | 1.0 | 3.0 | 0.00 | 0.17 | 0.00 | 87 | 1005.9 |
| 20260510064558 | 51 | 225 | 1.0 | 4.0 | 0.00 | 0.17 | 0.00 | 87 | 1006.1 |
| 20260510063517 | 51 | 158 | 5.0 | 10.0 | 0.00 | 0.17 | 0.00 | 88 | 1005.7 |
| 20260510062540 | 51 | 135 | 1.0 | 4.0 | 0.00 | 0.17 | 0.00 | 88 | 1005.7 |
| 20260510061519 | 51 | 0.0 | 2.0 | 0.00 | 0.17 | 0.00 | 87 | 1006.0 | |
| 20260510060517 | 51 | 0.0 | 0.0 | 0.00 | 0.17 | 0.00 | 87 | 1006.0 | |
| 20260510055519 | 51 | 158 | 1.0 | 2.0 | 0.00 | 0.17 | 0.00 | 87 | 1006.2 |
| 20260510054540 | 51 | 0.0 | 0.0 | 0.00 | 0.17 | 0.00 | 86 | 1006.1 | |
| 20260510053519 | 52 | 0.0 | 2.0 | 0.00 | 0.17 | 0.00 | 85 | 1006.2 | |
| 20260510052539 | 52 | 135 | 1.0 | 2.0 | 0.00 | 0.17 | 0.00 | 85 | 1006.1 |
| 20260510051519 | 53 | 203 | 1.0 | 3.0 | 0.00 | 0.17 | 0.00 | 85 | 1006.0 |
| 20260510050519 | 53 | 0.0 | 2.0 | 0.00 | 0.17 | 0.00 | 84 | 1005.9 | |
| 20260510045519 | 53 | 158 | 3.0 | 8.0 | 0.00 | 0.17 | 0.00 | 84 | 1005.7 |
| 20260510044519 | 53 | 180 | 7.0 | 14.0 | 0.03 | 0.17 | 0.00 | 85 | 1005.5 |
| 20260510043519 | 53 | 180 | 6.0 | 11.0 | 0.05 | 0.17 | 0.00 | 86 | 1005.6 |
| 20260510042519 | 53 | 180 | 6.0 | 12.0 | 0.08 | 0.17 | 0.00 | 87 | 1005.5 |
| 20260510041519 | 53 | 180 | 8.0 | 14.0 | 0.09 | 0.17 | 0.00 | 87 | 1005.7 |
| 20260510040519 | 53 | 180 | 6.0 | 11.0 | 0.10 | 0.17 | 0.00 | 87 | 1005.5 |
| 20260510035540 | 53 | 180 | 6.0 | 12.0 | 0.11 | 0.17 | 0.17 | 86 | 1005.6 |
| 20260510034519 | 53 | 180 | 4.0 | 10.0 | 0.09 | 0.14 | 0.14 | 86 | 1005.8 |
| 20260510033519 | 54 | 225 | 2.0 | 5.0 | 0.08 | 0.12 | 0.12 | 85 | 1005.9 |
| 20260510032518 | 54 | 180 | 3.0 | 9.0 | 0.09 | 0.09 | 0.09 | 85 | 1005.9 |
| 20260510031518 | 54 | 180 | 3.0 | 7.0 | 0.08 | 0.08 | 0.08 | 84 | 1006.0 |
| 20260510030519 | 54 | 225 | 3.0 | 5.0 | 0.07 | 0.07 | 0.07 | 83 | 1006.2 |
| 20260510025518 | 55 | 248 | 3.0 | 6.0 | 0.06 | 0.06 | 0.06 | 82 | 1006.3 |
| 20260510024518 | 56 | 270 | 5.0 | 12.0 | 0.05 | 0.05 | 0.05 | 80 | 1006.3 |
| 20260510023518 | 57 | 270 | 7.0 | 12.0 | 0.04 | 0.04 | 0.04 | 77 | 1006.5 |
| 20260510023018 | 59 | 270 | 11.0 | 18.0 | 0.03 | 0.03 | 0.03 | 74 | 1006.4 |
| 20260510022018 | 58 | 203 | 8.0 | 15.0 | 0.00 | 0.00 | 0.00 | 76 | 1005.2 |
| 20260510021018 | 58 | 180 | 7.0 | 15.0 | 0.00 | 0.00 | 0.00 | 76 | 1004.4 |
| 20260510020038 | 58 | 203 | 6.0 | 11.0 | 0.00 | 0.00 | 0.00 | 76 | 1004.1 |
| 20260510015038 | 58 | 180 | 7.0 | 13.0 | 0.00 | 0.00 | 0.00 | 76 | 1003.9 |
| 20260510014018 | 58 | 158 | 7.0 | 13.0 | 0.00 | 0.00 | 0.00 | 75 | 1003.9 |
| 20260510013019 | 58 | 158 | 5.0 | 10.0 | 0.00 | 0.00 | 0.00 | 75 | 1003.9 |
| 20260510012018 | 58 | 158 | 6.0 | 11.0 | 0.00 | 0.00 | 0.00 | 75 | 1004.0 |
| 20260510011018 | 58 | 158 | 8.0 | 14.0 | 0.00 | 0.00 | 0.00 | 75 | 1003.6 |
| 20260510010018 | 58 | 180 | 7.0 | 14.0 | 0.00 | 0.00 | 0.00 | 74 | 1003.6 |
| 20260510005018 | 58 | 158 | 10.0 | 14.0 | 0.00 | 0.00 | 0.00 | 74 | 1003.3 |
| 20260510004018 | 58 | 180 | 10.0 | 15.0 | 0.00 | 0.00 | 0.00 | 74 | 1003.4 |
| 20260510003018 | 58 | 180 | 8.0 | 13.0 | 0.00 | 0.00 | 0.00 | 74 | 1003.4 |
| 20260510002018 | 59 | 180 | 7.0 | 15.0 | 0.00 | 0.00 | 0.00 | 73 | 1003.3 |
| 20260510001018 | 59 | 180 | 6.0 | 13.0 | 0.00 | 0.00 | 0.00 | 73 | 1003.3 |
| 20260510000018 | 60 | 180 | 6.0 | 11.0 | 0.00 | 0.00 | 0.00 | 71 | 1003.3 |
| 20260509235038 | 60 | 158 | 5.0 | 11.0 | 0.00 | 0.00 | 0.00 | 70 | 1003.3 |
| 20260509234018 | 61 | 158 | 6.0 | 10.0 | 0.00 | 0.00 | 0.00 | 69 | 1003.2 |
| 20260509233018 | 61 | 158 | 5.0 | 10.0 | 0.00 | 0.00 | 0.00 | 68 | 1003.4 |
| 20260509232018 | 61 | 180 | 6.0 | 12.0 | 0.00 | 0.00 | 0.00 | 68 | 1003.2 |
| 20260509231017 | 62 | 180 | 5.0 | 16.0 | 0.00 | 0.00 | 0.00 | 67 | 1003.1 |
| 20260509230038 | 63 | 180 | 9.0 | 14.0 | 0.00 | 0.00 | 0.00 | 65 | 1003.1 |
| 20260509225037 | 63 | 180 | 7.0 | 15.0 | 0.00 | 0.00 | 0.00 | 65 | 1003.2 |
| 20260509224018 | 63 | 180 | 6.0 | 13.0 | 0.00 | 0.00 | 0.00 | 66 | 1003.3 |
| 20260509223017 | 63 | 180 | 8.0 | 15.0 | 0.00 | 0.00 | 0.00 | 65 | 1003.1 |
| 20260509222017 | 63 | 180 | 8.0 | 15.0 | 0.00 | 0.00 | 0.00 | 66 | 1003.3 |
| 20260509221017 | 62 | 180 | 7.0 | 14.0 | 0.00 | 0.00 | 0.00 | 66 | 1003.3 |
| 20260509220017 | 62 | 180 | 9.0 | 14.0 | 0.00 | 0.00 | 0.00 | 67 | 1003.4 |
| 20260509215017 | 63 | 180 | 9.0 | 18.0 | 0.00 | 0.00 | 0.00 | 65 | 1003.4 |
| 20260509214017 | 64 | 180 | 10.0 | 18.0 | 0.00 | 0.00 | 0.00 | 63 | 1003.4 |
| 20260509213017 | 63 | 158 | 9.0 | 18.0 | 0.00 | 0.00 | 0.00 | 64 | 1003.4 |
| 20260509212037 | 62 | 158 | 8.0 | 16.0 | 0.00 | 0.00 | 0.00 | 66 | 1003.4 |
| 20260509211017 | 63 | 158 | 12.0 | 22.0 | 0.00 | 0.00 | 0.00 | 65 | 1003.6 |
| 20260509210017 | 62 | 180 | 12.0 | 21.0 | 0.00 | 0.00 | 0.00 | 65 | 1003.6 |
| 20260509205057 | 62 | 180 | 12.0 | 21.0 | 0.00 | 0.00 | 0.00 | 65 | 1003.6 |
| 20260509204017 | 64 | 180 | 11.0 | 19.0 | 0.00 | 0.00 | 0.00 | 63 | 1003.7 |
| 20260509203017 | 64 | 203 | 9.0 | 21.0 | 0.00 | 0.00 | 0.00 | 62 | 1003.9 |
| 20260509202017 | 63 | 203 | 15.0 | 23.0 | 0.00 | 0.00 | 0.00 | 63 | 1003.8 |
| 20260509201057 | 64 | 203 | 11.0 | 22.0 | 0.00 | 0.00 | 0.00 | 63 | 1003.9 |
| 20260509200017 | 63 | 158 | 10.0 | 19.0 | 0.00 | 0.00 | 0.00 | 63 | 1003.9 |
| 20260509195017 | 62 | 180 | 12.0 | 18.0 | 0.00 | 0.00 | 0.00 | 66 | 1004.0 |
| 20260509194019 | 61 | 158 | 9.0 | 15.0 | 0.00 | 0.00 | 0.00 | 66 | 1004.3 |
| 20260509193018 | 62 | 180 | 12.0 | 19.0 | 0.00 | 0.00 | 0.00 | 66 | 1004.5 |
| 20260509192019 | 63 | 180 | 8.0 | 13.0 | 0.00 | 0.00 | 0.00 | 64 | 1004.5 |
| 20260509191018 | 64 | 180 | 6.0 | 13.0 | 0.00 | 0.00 | 0.00 | 63 | 1004.6 |
| 20260509190019 | 63 | 180 | 9.0 | 17.0 | 0.00 | 0.00 | 0.00 | 63 | 1004.7 |
| 20260509185019 | 62 | 203 | 10.0 | 20.0 | 0.00 | 0.00 | 0.00 | 64 | 1004.9 |
| 20260509184019 | 63 | 203 | 7.0 | 12.0 | 0.00 | 0.00 | 0.00 | 65 | 1004.9 |
| 20260509183039 | 62 | 180 | 5.0 | 12.0 | 0.00 | 0.00 | 0.00 | 66 | 1005.1 |
| 20260509182018 | 60 | 180 | 8.0 | 14.0 | 0.00 | 0.00 | 0.00 | 68 | 1005.2 |
| 20260509181018 | 59 | 180 | 6.0 | 14.0 | 0.00 | 0.00 | 0.00 | 70 | 1005.3 |
| 20260509180018 | 59 | 203 | 7.0 | 13.0 | 0.00 | 0.00 | 0.00 | 70 | 1005.3 |
| 20260509175039 | 58 | 180 | 7.0 | 13.0 | 0.00 | 0.00 | 0.00 | 71 | 1005.3 |